Temperature
3 2 2 2 1 1 0 -1 -2 -3 -2 -2 -2 -1 -1 -1 -1 -1 -1 -1 -1 -1 -1 -1 -1 -1 -0 -0 0 0 1 1 1 1 1 1 2 2
2 2 1 1 0 0 -0 -1 -2 -3 -4 -3 -3 -3 -2 -2 -2 -2 -2 -2 -2 -2 -2 -2 -2 -1 -1 -1 -1 -0 -0 0 0 0 0 1 1 2
2 1 1 0 -0 -1 -1 -2 -2 -3 -4 -4 -3 -4 -3 -3 -3 -3 -2 -2 -2 -2 -2 -2 -2 -2 -2 -1 -1 -1 -1 -1 -0 -0 0 0 1 1
1 0 -0 -1 -1 -2 -2 -3 -3 -3 -4 -5 -4 -4 -4 -4 -4 -3 -3 -3 -3 -3 -3 -3 -3 -2 -2 -2 -2 -2 -1 -1 -1 -1 -1 -0 -0 0
-0 -1 -1 -2 -2 -3 -3 -3 -4 -4 -5 -5 -5 -4 -4 -4 -4 -4 -4 -3 -3 -3 -3 -3 -3 -3 -3 -2 -2 -2 -2 -2 -1 -1 -1 -1 -1 -0
-1 -2 -2 -3 -3 -3 -4 -4 -4 -5 -5 -5 -5 -5 -5 -4 -4 -4 -4 -4 -4 -4 -3 -3 -3 -3 -3 -3 -2 -2 -2 -2 -2 -2 -2 -1 -1 -1
-2 -2 -3 -3 -4 -4 -5 -5 -5 -5 -5 -5 -5 -5 -5 -5 -5 -4 -5 -4 -4 -4 -4 -3 -3 -3 -3 -3 -3 -3 -3 -3 -2 -2 -2 -2 -2 -2
-3 -3 -4 -4 -4 -5 -5 -5 -5 -5 -5 -5 -5 -5 -5 -5 -5 -5 -5 -5 -5 -4 -4 -4 -4 -4 -3 -3 -3 -3 -3 -3 -3 -3 -3 -2 -2 -2
-4 -4 -4 -5 -5 -5 -5 -5 -5 -5 -5 -5 -5 -5 -5 -5 -5 -5 -5 -5 -5 -4 -4 -4 -4 -4 -3 -3 -3 -3 -3 -3 -3 -3 -3 -3 -3 -3
-4 -5 -5 -5 -5 -6 -5 -5 -5 -5 -5 -5 -5 -5 -5 -5 -5 -4 -4 -4 -4 -4 -4 -4 -4 -4 -4 -3 -3 -3 -3 -3 -3 -3 -3 -3 -3 -3
-4 -5 -5 -6 -6 -6 -6 -5 -5 -5 -5 -5 -5 -5 -5 -5 -5 -5 -4 -5 -4 -4 -4 -4 -4 -4 -4 -4 -3 -3 -3 -4 -4 -4 -4 -4 -3 -3
-5 -5 -6 -6 -6 -6 -6 -6 -6 -6 -5 -5 -5 -5 -5 -5 -5 -5 -5 -5 -5 -5 -5 -5 -5 -5 -5 -4 -4 -4 -4 -4 -4 -4 -4 -4 -4 -4
-6 -6 -6 -6 -6 -6 -6 -6 -6 -6 -6 -6 -6 -6 -5 -5 -5 -5 -5 -5 -5 -5 -5 -5 -5 -5 -5 -5 -5 -4 -4 -4 -4 -4 -4 -4 -4 -4
-6 -6 -6 -6 -6 -6 -6 -6 -6 -6 -6 -6 -6 -6 -6 -6 -6 -6 -6 -6 -5 -5 -5 -5 -5 -5 -6 -6 -6 -5 -5 -5 -5 -5 -5 -5 -5 -5
-6 -7 -7 -6 -6 -6 -6 -6 -6 -7 -7 -7 -7 -7 -7 -7 -6 -6 -6 -6 -6 -6 -6 -6 -6 -6 -6 -6 -6 -6 -6 -5 -5 -5 -5 -5 -5 -5
-6 -7 -7 -7 -7 -7 -7 -7 -7 -7 -7 -7 -7 -7 -7 -7 -7 -7 -6 -6 -6 -6 -6 -6 -6 -6 -6 -6 -6 -6 -6 -6 -5 -5 -5 -5 -5 -5
-7 -7 -7 -7 -7 -7 -7 -7 -7 -7 -7 -7 -7 -7 -7 -7 -7 -7 -7 -7 -7 -7 -6 -6 -6 -6 -6 -7 -6 -6 -6 -6 -6 -6 -6 -6 -6 -6
-7 -7 -8 -8 -8 -8 -8 -8 -8 -8 -8 -8 -8 -8 -8 -8 -7 -7 -7 -7 -7 -7 -7 -6 -7 -7 -7 -7 -6 -6 -6 -6 -6 -6 -6 -6 -6 -6
-8 -8 -8 -9 -9 -9 -9 -9 -8 -8 -8 -8 -8 -8 -8 -8 -8 -8 -7 -7 -7 -7 -7 -7 -7 -7 -7 -7 -7 -6 -7 -7 -7 -7 -7 -7 -6 -6
-8 -9 -9 -9 -9 -9 -9 -9 -9 -9 -8 -8 -8 -8 -8 -8 -8 -8 -8 -8 -7 -7 -7 -7 -7 -7 -7 -7 -7 -7 -7 -7 -7 -7 -7 -7 -7 -7
-9 -9 -9 -10 -10 -9 -9 -9 -9 -9 -9 -9 -8 -8 -8 -8 -8 -8 -8 -8 -8 -8 -8 -7 -7 -7 -8 -8 -8 -7 -7 -7 -7 -8 -7 -8 -7 -7
-10 -10 -10 -10 -10 -10 -10 -9 -9 -9 -9 -9 -9 -9 -9 -9 -8 -8 -8 -8 -8 -8 -8 -8 -8 -8 -8 -8 -8 -8 -8 -8 -8 -8 -8 -8 -8 -8
-10 -10 -10 -10 -10 -10 -10 -10 -10 -9 -9 -9 -9 -9 -9 -9 -9 -9 -9 -9 -9 -9 -8 -8 -8 -8 -8 -8 -8 -8 -8 -8 -8 -8 -8 -8 -8 -8
Wind_Speed
7 7 6 6 6 6 6 6 8 14 13 7 5 6 9 14 19 19 18 24 28 30 30 30 30 29 29 30 29 29 29 29 29 29 30 30 31 32
6 7 7 6 6 6 6 6 7 11 15 6 6 7 9 14 21 20 18 28 30 30 31 30 30 30 30 30 29 29 29 29 29 29 29 30 31 31
8 8 9 9 7 7 6 7 7 8 16 14 7 7 9 11 13 16 19 18 20 27 29 29 29 29 29 29 29 29 29 29 29 29 29 29 30 30
10 9 10 9 9 8 7 9 9 9 13 19 12 8 10 10 12 12 13 16 14 24 27 28 29 28 28 28 28 28 27 27 27 27 28 28 28 28
10 10 11 10 11 9 9 10 10 11 11 15 16 10 9 9 10 12 13 11 14 20 23 24 25 26 26 27 27 26 26 25 25 25 25 26 26 27
10 11 11 11 12 11 11 11 11 11 12 13 15 12 10 8 8 9 10 8 10 12 16 20 23 25 25 26 25 25 24 23 23 23 23 23 23 24
10 10 11 14 18 16 14 10 10 11 11 12 14 13 11 8 8 7 12 10 10 9 10 11 11 10 12 19 21 22 23 23 23 23 22 22 22 23
10 10 11 14 18 23 25 24 21 15 13 13 14 14 14 11 10 10 12 13 11 5 7 9 7 9 9 7 18 22 22 22 22 21 21 21 21 21
10 10 11 12 18 12 19 24 22 26 25 18 17 17 16 13 13 14 13 14 14 7 7 12 8 11 9 12 21 22 22 21 21 20 19 19 18 19
10 11 12 12 13 15 13 13 14 15 18 15 14 16 16 15 15 16 17 15 14 11 9 11 9 10 10 8 18 22 21 21 20 19 18 17 16 17
10 11 13 12 21 25 18 15 15 13 19 25 26 25 27 27 22 13 11 12 13 8 6 7 7 7 7 8 12 19 19 19 18 17 16 15 15 14
10 11 18 20 24 26 17 14 17 15 13 15 17 19 17 18 22 13 10 12 11 8 5 5 5 4 4 4 5 5 7 12 14 14 14 13 13 7
10 8 9 23 26 28 24 16 20 20 13 11 11 10 9 9 9 9 9 10 11 9 5 4 4 4 5 4 3 3 4 4 4 6 8 10 10 7
11 9 12 25 27 28 22 21 27 22 9 9 10 9 8 8 8 8 9 9 10 11 7 6 5 5 5 5 5 3 3 3 3 3 3 5 7 8
12 20 24 28 25 18 20 25 20 10 8 9 9 9 7 8 8 7 7 7 7 7 7 7 7 6 6 6 5 3 2 3 3 3 2 2 2 2
13 17 23 23 18 18 17 13 8 9 10 9 8 8 7 7 7 6 6 5 5 5 6 7 7 7 6 7 6 5 4 3 2 2 2 2 2 2
14 9 7 7 8 8 8 8 7 7 8 7 8 8 8 7 7 5 5 5 5 5 4 3 4 5 6 5 5 5 4 4 3 3 2 2 2 3
17 9 9 9 10 10 10 9 8 8 8 8 8 8 8 7 7 6 5 5 6 5 4 3 2 2 2 4 7 6 5 4 3 3 3 3 3 3
11 8 9 10 10 10 9 9 9 8 8 8 8 8 8 7 7 6 6 5 5 5 4 3 3 3 4 5 4 7 6 4 3 3 4 4 4 3
7 9 10 10 10 10 9 9 9 8 8 8 8 8 7 7 7 6 6 5 5 4 4 3 4 5 6 5 3 3 7 5 4 4 3 3 3 3
9 9 9 10 10 10 10 9 9 9 9 8 8 8 7 7 7 6 6 8 6 4 5 5 6 7 4 2 3 3 3 7 7 4 4 3 2 2
10 10 10 10 10 10 10 9 9 9 9 8 8 7 7 7 7 7 6 6 5 5 6 5 3 2 3 5 6 5 3 3 6 9 9 7 4 4
10 10 10 10 9 9 9 10 11 10 9 9 8 7 7 7 6 6 6 6 6 6 5 4 3 3 4 5 6 5 5 4 3 4 5 10 13 12
Wind_Direction
272 272 269 266 263 261 261 262 280 297 295 269 267 259 266 272 278 281 273 279 286 286 286 285 285 285 284 282 279 277 275 274 275 274 274 274 274 274
270 271 270 269 265 261 258 258 256 278 289 278 274 271 275 284 287 289 285 288 289 288 287 285 284 283 282 282 280 277 275 274 273 272 273 273 271 271
280 277 274 273 270 265 260 261 263 268 285 291 274 271 269 273 281 280 281 280 280 284 284 284 284 283 282 281 280 278 276 273 273 272 272 273 272 271
281 279 277 279 271 267 265 266 269 267 277 290 291 278 268 268 271 272 280 280 276 281 284 284 283 283 282 281 280 279 278 276 274 273 272 272 273 273
274 274 275 275 276 273 268 270 272 276 272 281 288 284 276 272 273 274 273 273 275 280 283 284 283 284 284 283 282 280 279 277 275 273 273 272 272 272
269 267 268 266 269 273 275 270 271 273 273 278 285 287 282 270 268 275 280 270 272 276 277 278 280 282 282 284 284 283 283 282 280 277 275 274 273 272
269 265 265 273 278 283 285 278 274 276 280 283 286 288 286 280 274 272 281 281 271 263 265 267 270 269 273 278 281 282 282 281 279 277 275 275 274 273
276 273 273 280 286 290 292 293 290 286 285 283 285 285 287 282 279 278 281 284 285 244 251 265 257 264 264 258 271 275 277 277 275 274 273 272 273 274
276 277 284 286 293 284 287 289 287 285 285 284 283 283 284 281 279 280 276 275 275 263 261 274 263 264 263 266 273 275 275 275 275 274 273 272 272 273
273 274 277 279 279 285 278 275 271 273 276 278 271 272 273 273 267 269 272 274 272 264 251 269 268 265 264 257 268 270 272 274 274 274 272 272 274 271
273 273 279 278 285 292 292 287 285 279 282 283 282 282 282 284 283 282 278 279 280 271 233 249 264 266 263 261 263 268 270 272 273 273 271 271 273 274
277 272 283 288 292 295 292 287 289 288 282 283 284 284 283 281 284 277 273 276 277 276 236 230 251 252 269 258 260 267 272 274 273 273 272 273 274 273
287 282 278 293 295 295 295 290 290 293 288 287 287 282 279 273 269 264 256 259 267 265 241 227 243 235 250 274 274 256 247 254 267 273 276 276 276 270
292 287 286 295 296 297 299 296 298 302 296 291 288 285 282 279 275 269 261 256 254 259 252 236 247 247 254 264 269 265 259 251 241 247 248 273 277 274
290 294 298 300 303 301 297 298 301 299 292 288 285 282 276 275 278 279 271 264 260 255 250 242 246 249 246 255 259 242 254 264 233 229 232 228 239 249
292 293 298 300 299 296 296 296 289 280 284 281 281 281 281 279 279 278 280 278 272 269 251 238 237 238 249 252 255 252 225 240 246 221 219 228 224 211
300 295 293 295 292 288 285 282 279 281 284 278 279 285 287 284 282 276 271 270 267 269 265 248 235 235 242 248 252 249 233 228 228 210 199 232 240 219
307 300 299 295 293 293 293 291 287 283 281 281 281 281 283 283 282 278 269 265 266 263 259 247 235 241 250 254 236 243 236 229 222 205 194 214 250 236
303 293 291 291 290 289 288 288 288 285 282 282 281 278 278 279 276 275 271 265 261 258 254 236 216 221 246 259 266 228 218 217 201 204 205 208 228 232
281 283 285 287 287 286 285 285 286 285 282 280 277 274 273 275 274 268 264 258 260 261 259 241 221 221 232 241 244 247 220 208 204 212 211 208 232 250
286 282 282 284 285 284 284 283 282 283 282 281 277 271 269 269 269 266 263 264 264 256 254 250 241 244 234 209 238 247 248 227 215 205 191 193 213 213
285 284 284 283 282 282 282 282 283 281 280 277 275 271 267 263 262 263 259 254 251 248 252 256 250 231 203 222 239 243 243 243 240 236 227 211 192 199
285 285 285 283 281 281 280 280 280 281 279 277 275 271 266 263 259 257 252 248 250 251 250 252 242 220 224 228 234 237 236 230 220 225 238 239 237 240
Height
1489 1486 1483 1480 1478 1475 1471 1468 1462 1450 1443 1444 1445 1444 1443 1440 1438 1435 1432 1430 1428 1426 1425 1423 1421 1420 1419 1419 1418 1418 1418 1418 1417 1417 1416 1417 1417 1418
1482 1478 1475 1472 1469 1466 1463 1460 1456 1449 1437 1433 1434 1434 1432 1430 1428 1425 1422 1420 1418 1416 1414 1412 1411 1409 1408 1408 1408 1407 1407 1407 1407 1407 1407 1407 1407 1408
1474 1471 1467 1464 1461 1458 1454 1451 1447 1442 1432 1423 1425 1423 1422 1420 1417 1415 1412 1409 1406 1404 1403 1401 1400 1399 1398 1398 1397 1397 1397 1397 1397 1397 1397 1398 1398 1398
1467 1463 1459 1456 1452 1449 1445 1441 1438 1434 1427 1417 1414 1414 1412 1411 1408 1405 1402 1400 1397 1395 1393 1391 1390 1389 1388 1387 1387 1387 1387 1387 1387 1387 1387 1388 1388 1389
1459 1455 1452 1448 1444 1440 1436 1432 1428 1425 1421 1414 1407 1405 1403 1402 1399 1396 1394 1391 1389 1386 1384 1382 1381 1379 1378 1378 1377 1377 1377 1377 1377 1377 1377 1378 1378 1379
1451 1448 1444 1440 1435 1431 1427 1423 1420 1416 1412 1408 1401 1397 1395 1394 1392 1388 1384 1382 1380 1378 1376 1374 1372 1371 1370 1369 1368 1367 1367 1367 1367 1367 1368 1368 1369 1369
1443 1439 1436 1432 1427 1424 1421 1416 1413 1409 1405 1401 1395 1391 1388 1386 1384 1381 1377 1373 1370 1369 1366 1364 1363 1362 1361 1360 1359 1358 1357 1357 1357 1358 1358 1359 1359 1360
1434 1430 1427 1423 1419 1415 1412 1409 1406 1402 1397 1393 1388 1384 1380 1379 1376 1373 1370 1366 1362 1361 1359 1356 1355 1353 1352 1351 1350 1349 1349 1348 1349 1349 1350 1350 1351 1352
1426 1421 1417 1414 1411 1406 1402 1399 1396 1394 1391 1387 1381 1376 1373 1371 1368 1365 1362 1358 1355 1353 1352 1347 1347 1344 1344 1343 1342 1341 1341 1341 1341 1341 1342 1342 1343 1344
1418 1413 1409 1404 1401 1397 1393 1388 1385 1383 1380 1377 1372 1368 1365 1362 1360 1357 1353 1349 1346 1345 1345 1341 1339 1337 1336 1335 1334 1334 1333 1333 1333 1334 1334 1335 1336 1336
1409 1405 1401 1396 1393 1390 1386 1380 1375 1372 1370 1367 1363 1360 1356 1354 1352 1349 1345 1342 1338 1336 1336 1334 1331 1330 1328 1327 1327 1327 1326 1326 1327 1327 1328 1329 1330 1330
1399 1396 1393 1389 1385 1382 1378 1372 1366 1362 1359 1355 1352 1349 1346 1344 1342 1340 1337 1334 1331 1328 1328 1327 1325 1324 1321 1320 1320 1321 1321 1321 1321 1321 1322 1323 1324 1324
1391 1387 1383 1380 1376 1373 1369 1364 1359 1355 1350 1346 1342 1339 1336 1334 1332 1330 1328 1326 1324 1322 1321 1321 1319 1318 1318 1315 1315 1316 1316 1316 1316 1316 1317 1318 1318 1319
1383 1378 1374 1371 1367 1363 1359 1355 1351 1347 1342 1338 1334 1331 1328 1326 1323 1321 1320 1318 1316 1315 1314 1314 1313 1313 1312 1311 1310 1310 1311 1311 1312 1312 1313 1313 1314 1315
1376 1371 1367 1362 1358 1353 1350 1346 1342 1338 1334 1330 1326 1323 1321 1318 1316 1314 1312 1310 1309 1308 1308 1307 1307 1307 1307 1306 1305 1306 1306 1307 1307 1308 1309 1309 1310 1311
1367 1362 1358 1353 1349 1345 1341 1337 1334 1331 1327 1323 1320 1317 1314 1312 1309 1307 1305 1304 1302 1301 1302 1301 1301 1301 1301 1301 1301 1301 1302 1302 1303 1304 1305 1306 1307 1308
1359 1353 1349 1344 1340 1336 1332 1329 1326 1323 1320 1317 1314 1311 1308 1306 1304 1302 1300 1299 1297 1296 1296 1296 1296 1296 1296 1296 1296 1296 1297 1298 1299 1300 1301 1302 1303 1305
1352 1345 1341 1337 1332 1328 1325 1322 1319 1316 1313 1311 1308 1305 1303 1300 1298 1296 1295 1294 1293 1292 1291 1292 1292 1292 1292 1292 1292 1292 1293 1294 1295 1296 1297 1298 1300 1302
1343 1338 1334 1330 1326 1322 1318 1315 1312 1309 1307 1304 1301 1299 1297 1294 1293 1291 1290 1289 1288 1287 1287 1287 1288 1288 1288 1287 1287 1288 1289 1290 1291 1292 1293 1295 1296 1298
1335 1331 1326 1322 1319 1315 1312 1308 1305 1302 1300 1297 1295 1293 1291 1289 1287 1286 1285 1284 1283 1283 1282 1283 1283 1283 1283 1283 1283 1284 1285 1286 1287 1288 1289 1291 1292 1294
1327 1323 1319 1315 1311 1308 1305 1302 1299 1296 1293 1291 1288 1286 1284 1283 1281 1280 1279 1278 1278 1277 1277 1277 1278 1279 1278 1279 1278 1278 1280 1281 1282 1284 1285 1286 1288 1289
1319 1315 1311 1307 1303 1300 1297 1294 1291 1288 1286 1284 1282 1280 1278 1277 1275 1274 1273 1272 1272 1272 1271 1272 1272 1273 1273 1273 1273 1273 1275 1276 1278 1279 1281 1282 1283 1285
1310 1307 1303 1299 1296 1293 1290 1287 1284 1281 1279 1277 1275 1273 1271 1270 1269 1268 1267 1266 1266 1266 1265 1265 1266 1266 1267 1267 1267 1268 1269 1270 1272 1273 1275 1277 1279 1281